QPF
0.03 0.02 0.01 0.01 0.02 0.04 0.05 0.05 0.07 0.03 0.01 0.00 0.00 0.00 0.00 0.00 0.00 0.00 0.00 0.00 0.00 0.00 0.00 0.00 0.00 0.00 0.00 0.00 0.00 0.00 0.00 0.00 0.00 0.00 0.00 0.00 0.00 0.00
0.02 0.01 0.00 0.00 0.00 0.00 0.00 0.00 0.00 0.00 0.00 0.00 0.00 0.00 0.00 0.00 0.00 0.00 0.00 0.00 0.00 0.00 0.00 0.00 0.00 0.00 0.00 0.00 0.00 0.00 0.00 0.00 0.00 0.00 0.00 0.00 0.00 0.00
0.00 0.00 0.00 0.00 0.00 0.00 0.00 0.00 0.00 0.00 0.00 0.00 0.00 0.00 0.00 0.00 0.00 0.00 0.00 0.00 0.00 0.00 0.00 0.00 0.00 0.00 0.00 0.00 0.00 0.00 0.00 0.00 0.00 0.00 0.00 0.00 0.01 0.01
0.00 0.00 0.00 0.00 0.00 0.00 0.00 0.00 0.00 0.00 0.00 0.00 0.00 0.00 0.00 0.00 0.00 0.00 0.00 0.00 0.00 0.00 0.00 0.00 0.00 0.00 0.00 0.00 0.00 0.00 0.00 0.00 0.00 0.00 0.00 0.00 0.00 0.00
0.00 0.00 0.00 0.00 0.00 0.00 0.00 0.00 0.00 0.00 0.00 0.00 0.00 0.00 0.00 0.00 0.00 0.00 0.00 0.00 0.00 0.00 0.00 0.00 0.00 0.00 0.00 0.00 0.00 0.00 0.00 0.00 0.00 0.00 0.00 0.00 0.00 0.00
0.00 0.00 0.00 0.00 0.00 0.00 0.00 0.00 0.00 0.00 0.00 0.00 0.00 0.00 0.00 0.00 0.00 0.00 0.00 0.00 0.00 0.00 0.00 0.00 0.00 0.00 0.00 0.00 0.00 0.00 0.00 0.00 0.00 0.00 0.00 0.00 0.00 0.00
0.00 0.00 0.00 0.00 0.00 0.00 0.00 0.00 0.00 0.00 0.00 0.00 0.00 0.00 0.00 0.00 0.00 0.00 0.00 0.00 0.00 0.00 0.00 0.00 0.00 0.00 0.00 0.00 0.00 0.00 0.00 0.00 0.00 0.00 0.00 0.00 0.00 0.00
0.00 0.00 0.00 0.00 0.00 0.00 0.00 0.00 0.00 0.00 0.00 0.00 0.00 0.00 0.00 0.00 0.00 0.00 0.00 0.00 0.00 0.00 0.00 0.00 0.00 0.00 0.00 0.00 0.00 0.00 0.00 0.00 0.00 0.00 0.00 0.00 0.00 0.00
0.00 0.00 0.00 0.00 0.00 0.00 0.00 0.00 0.00 0.00 0.00 0.00 0.00 0.00 0.00 0.00 0.00 0.00 0.00 0.00 0.00 0.00 0.00 0.00 0.00 0.00 0.00 0.00 0.00 0.00 0.00 0.00 0.00 0.00 0.00 0.00 0.00 0.00
0.00 0.00 0.00 0.00 0.00 0.00 0.00 0.00 0.00 0.00 0.00 0.00 0.00 0.00 0.00 0.00 0.00 0.00 0.00 0.00 0.00 0.00 0.00 0.00 0.00 0.00 0.00 0.00 0.00 0.00 0.00 0.00 0.00 0.00 0.00 0.00 0.00 0.00
0.00 0.00 0.00 0.00 0.00 0.00 0.00 0.00 0.00 0.00 0.00 0.00 0.00 0.00 0.00 0.00 0.00 0.00 0.00 0.00 0.00 0.00 0.00 0.00 0.00 0.00 0.00 0.00 0.00 0.00 0.00 0.00 0.00 0.00 0.00 0.00 0.00 0.00
0.00 0.00 0.00 0.00 0.00 0.00 0.00 0.00 0.00 0.00 0.00 0.00 0.00 0.00 0.00 0.00 0.00 0.00 0.01 0.01 0.01 0.01 0.00 0.00 0.00 0.00 0.00 0.01 0.01 0.01 0.01 0.00 0.00 0.00 0.00 0.00 0.00 0.00
0.00 0.00 0.00 0.00 0.00 0.00 0.00 0.00 0.00 0.00 0.00 0.00 0.00 0.00 0.00 0.00 0.00 0.00 0.00 0.01 0.01 0.01 0.01 0.01 0.00 0.00 0.00 0.00 0.00 0.00 0.00 0.00 0.00 0.00 0.00 0.00 0.00 0.00
0.00 0.00 0.00 0.00 0.00 0.00 0.00 0.00 0.00 0.00 0.00 0.00 0.00 0.00 0.00 0.00 0.00 0.00 0.00 0.00 0.00 0.01 0.01 0.02 0.01 0.01 0.01 0.01 0.01 0.01 0.01 0.01 0.02 0.01 0.01 0.00 0.00 0.00
0.00 0.00 0.00 0.00 0.00 0.00 0.00 0.00 0.00 0.00 0.00 0.00 0.00 0.00 0.00 0.00 0.00 0.00 0.00 0.00 0.00 0.00 0.00 0.01 0.02 0.01 0.01 0.00 0.00 0.01 0.01 0.01 0.01 0.01 0.01 0.01 0.00 0.00
0.00 0.00 0.00 0.00 0.00 0.00 0.00 0.00 0.00 0.00 0.00 0.00 0.00 0.00 0.00 0.00 0.00 0.00 0.00 0.00 0.00 0.00 0.00 0.00 0.00 0.00 0.00 0.00 0.00 0.00 0.00 0.01 0.00 0.00 0.00 0.00 0.00 0.00
0.00 0.00 0.00 0.00 0.00 0.00 0.00 0.00 0.00 0.00 0.00 0.00 0.00 0.00 0.00 0.00 0.00 0.00 0.00 0.00 0.00 0.00 0.00 0.00 0.00 0.00 0.00 0.00 0.00 0.00 0.00 0.00 0.00 0.00 0.00 0.00 0.00 0.00
0.00 0.00 0.00 0.00 0.00 0.00 0.00 0.00 0.00 0.00 0.00 0.00 0.00 0.00 0.00 0.00 0.00 0.00 0.00 0.00 0.00 0.00 0.00 0.01 0.01 0.00 0.00 0.00 0.00 0.00 0.00 0.00 0.00 0.00 0.00 0.00 0.00 0.00
0.00 0.00 0.00 0.00 0.00 0.00 0.00 0.00 0.00 0.00 0.00 0.00 0.00 0.00 0.00 0.00 0.00 0.00 0.00 0.00 0.00 0.00 0.00 0.00 0.00 0.00 0.00 0.00 0.00 0.00 0.00 0.00 0.00 0.00 0.00 0.00 0.00 0.00
0.00 0.00 0.00 0.00 0.00 0.00 0.00 0.00 0.00 0.00 0.00 0.00 0.00 0.00 0.00 0.00 0.00 0.00 0.00 0.00 0.00 0.00 0.00 0.00 0.00 0.00 0.00 0.00 0.01 0.00 0.00 0.00 0.00 0.00 0.00 0.00 0.00 0.00
0.00 0.00 0.00 0.00 0.00 0.00 0.00 0.00 0.00 0.00 0.00 0.00 0.00 0.00 0.00 0.00 0.00 0.00 0.00 0.00 0.00 0.00 0.00 0.00 0.00 0.00 0.00 0.00 0.00 0.00 0.00 0.00 0.00 0.00 0.00 0.00 0.00 0.00
0.00 0.00 0.00 0.00 0.00 0.00 0.00 0.00 0.00 0.00 0.00 0.00 0.00 0.00 0.00 0.00 0.00 0.00 0.00 0.00 0.00 0.00 0.00 0.00 0.00 0.00 0.00 0.00 0.00 0.00 0.00 0.00 0.00 0.00 0.00 0.00 0.00 0.00
0.00 0.00 0.00 0.00 0.00 0.00 0.00 0.00 0.00 0.00 0.00 0.00 0.00 0.00 0.00 0.00 0.00 0.00 0.00 0.00 0.00 0.00 0.00 0.00 0.00 0.00 0.00 0.00 0.00 0.00 0.00 0.00 0.00 0.00 0.00 0.00 0.00 0.00
MSLP
1002.29 1003.36 1004.16 1004.65 1004.08 1005.30 1007.46 1006.16 1006.28 1007.31 1007.52 1006.93 1007.45 1008.31 1008.28 1008.72 1007.88 1007.77 1008.23 1008.42 1008.71 1008.89 1009.30 1009.41 1009.44 1009.08 1008.80 1008.49 1007.96 1007.77 1007.93 1007.76 1007.37 1007.01 1006.37 1005.62 1005.27 1004.10
1003.25 1003.71 1004.32 1004.30 1005.78 1006.57 1005.82 1007.04 1008.10 1008.55 1008.13 1007.43 1008.04 1008.34 1008.33 1007.86 1007.72 1007.75 1008.12 1008.24 1008.67 1009.22 1009.56 1009.61 1009.33 1009.08 1008.53 1008.35 1008.00 1007.31 1007.53 1007.54 1007.17 1006.73 1006.22 1005.64 1005.68 1004.90
1003.80 1004.71 1005.19 1005.51 1007.00 1006.73 1007.29 1008.16 1009.36 1009.24 1008.70 1008.65 1009.41 1008.89 1008.19 1007.95 1008.11 1008.57 1008.93 1008.88 1009.18 1009.30 1009.64 1009.22 1009.19 1008.72 1008.29 1008.23 1007.92 1007.22 1007.05 1007.37 1006.92 1006.53 1006.04 1005.93 1005.66 1005.79
1006.59 1006.55 1007.06 1007.72 1007.23 1008.01 1008.78 1009.38 1009.46 1009.80 1010.22 1010.17 1009.17 1008.54 1008.77 1008.80 1009.11 1009.55 1009.87 1009.54 1009.29 1009.11 1009.60 1009.11 1008.83 1008.41 1008.11 1007.92 1007.89 1007.37 1007.50 1007.31 1006.84 1006.52 1006.07 1005.50 1005.76 1005.79
1008.45 1009.09 1009.87 1009.29 1009.49 1010.00 1009.85 1010.20 1010.58 1010.53 1010.60 1010.63 1009.34 1009.21 1009.88 1010.14 1010.17 1010.60 1010.58 1010.57 1010.03 1009.69 1009.51 1009.07 1008.76 1008.30 1007.81 1007.71 1007.42 1007.15 1007.54 1007.61 1007.27 1006.55 1006.61 1005.95 1005.52 1005.63
1010.72 1011.21 1011.88 1011.33 1011.27 1011.28 1011.32 1011.65 1011.84 1011.35 1010.47 1010.62 1010.68 1010.59 1011.21 1011.51 1011.52 1011.72 1011.40 1011.33 1011.01 1010.55 1009.85 1009.33 1008.67 1008.04 1007.59 1007.63 1007.34 1007.10 1007.42 1007.73 1007.22 1006.97 1006.32 1006.30 1005.94 1005.58
1012.18 1012.95 1012.90 1012.71 1013.11 1013.02 1013.15 1012.98 1012.30 1012.21 1011.86 1012.13 1012.41 1012.62 1012.69 1012.86 1012.80 1012.54 1012.14 1011.85 1011.62 1011.04 1010.22 1009.76 1009.24 1008.58 1008.03 1007.81 1006.75 1006.37 1007.30 1007.62 1007.42 1007.01 1006.26 1005.70 1005.59 1005.66
1013.93 1014.33 1014.68 1014.85 1015.24 1015.24 1014.74 1013.96 1013.47 1013.35 1013.43 1013.28 1013.42 1013.39 1013.38 1013.40 1013.27 1012.83 1012.55 1012.48 1011.54 1010.70 1010.86 1010.41 1009.76 1009.05 1008.37 1007.32 1007.07 1006.03 1006.89 1007.04 1007.11 1006.69 1006.55 1005.88 1005.43 1005.29
1014.93 1015.32 1015.37 1016.12 1016.13 1015.89 1015.25 1014.46 1014.18 1014.06 1013.89 1013.91 1014.42 1014.39 1014.13 1013.79 1013.55 1013.29 1012.91 1012.47 1011.69 1011.24 1010.89 1009.96 1009.79 1008.83 1008.14 1007.18 1006.55 1006.06 1006.52 1006.83 1006.64 1006.75 1006.14 1005.74 1005.18 1004.93
1015.51 1016.34 1017.08 1017.38 1017.17 1016.47 1015.64 1015.10 1014.80 1014.54 1014.59 1014.48 1014.41 1014.26 1013.69 1013.48 1013.26 1012.88 1012.21 1011.72 1011.15 1010.92 1010.60 1009.42 1008.98 1008.20 1007.53 1006.83 1005.93 1006.00 1006.16 1006.30 1006.32 1006.01 1006.00 1005.61 1005.24 1004.61
1016.80 1017.59 1017.52 1017.22 1016.86 1016.42 1015.83 1015.37 1015.24 1015.08 1014.86 1014.48 1014.31 1013.83 1013.42 1013.05 1012.53 1012.21 1011.95 1011.32 1010.68 1010.30 1009.92 1009.10 1008.63 1007.84 1007.31 1005.92 1005.53 1005.64 1005.95 1006.10 1005.74 1005.93 1005.59 1005.13 1004.94 1004.52
1017.42 1017.56 1017.75 1017.73 1017.17 1016.54 1016.18 1016.07 1015.70 1015.69 1015.15 1014.52 1014.13 1013.99 1013.47 1013.00 1012.70 1012.24 1011.86 1011.09 1010.45 1009.76 1009.00 1008.53 1007.79 1007.33 1006.41 1005.92 1005.68 1005.38 1005.32 1005.27 1005.29 1005.23 1005.02 1004.86 1004.50 1004.40
1018.43 1018.37 1018.34 1018.00 1017.65 1017.17 1016.86 1016.71 1016.51 1016.04 1015.52 1015.07 1014.63 1014.07 1013.39 1013.08 1012.77 1012.43 1012.04 1011.24 1010.53 1009.62 1009.02 1008.59 1007.67 1007.41 1007.27 1006.58 1006.19 1005.59 1005.39 1005.21 1004.86 1004.61 1004.38 1004.17 1004.17 1004.00
1019.71 1019.39 1018.97 1018.39 1018.01 1017.58 1017.25 1016.81 1016.48 1016.09 1015.75 1015.27 1014.76 1014.18 1013.77 1013.10 1012.28 1011.72 1011.22 1010.58 1009.89 1009.15 1008.21 1007.88 1007.28 1007.23 1006.76 1006.09 1005.98 1005.73 1005.18 1004.68 1004.38 1004.05 1003.70 1003.52 1003.58 1003.53
1020.39 1019.83 1019.14 1018.64 1018.25 1017.94 1017.41 1016.90 1016.44 1016.06 1015.76 1015.39 1014.96 1014.57 1014.10 1013.39 1012.48 1011.60 1010.65 1009.97 1009.07 1008.33 1007.46 1006.73 1006.61 1006.19 1006.07 1005.50 1005.38 1005.06 1005.02 1004.47 1003.92 1003.34 1002.95 1003.06 1003.08 1003.18
1020.77 1019.99 1019.73 1019.38 1018.97 1018.26 1017.65 1017.29 1016.88 1016.75 1016.63 1016.15 1015.59 1014.76 1014.00 1013.26 1012.59 1011.80 1011.09 1010.19 1009.16 1007.81 1006.97 1006.35 1005.80 1005.45 1005.01 1004.79 1004.66 1003.95 1003.88 1003.67 1003.21 1002.86 1002.35 1002.49 1002.45 1002.50
1020.99 1020.57 1020.20 1019.90 1019.21 1019.14 1018.76 1018.27 1017.84 1017.48 1017.06 1016.65 1015.80 1014.88 1014.15 1013.35 1012.56 1011.87 1011.11 1010.10 1009.16 1007.94 1006.71 1005.69 1005.09 1004.47 1003.76 1003.64 1003.32 1003.11 1002.58 1002.56 1002.37 1002.42 1002.00 1001.93 1001.91 1001.99
1021.70 1021.56 1021.28 1020.74 1020.35 1019.80 1019.27 1018.78 1018.25 1017.78 1017.34 1016.55 1015.84 1015.08 1014.31 1013.37 1012.26 1011.41 1010.79 1009.99 1008.95 1007.79 1006.54 1005.62 1004.95 1003.48 1002.55 1002.17 1002.38 1002.06 1001.74 1001.40 1001.35 1001.36 1001.10 1001.19 1001.43 1001.36
1022.50 1022.22 1021.79 1021.43 1021.05 1020.57 1019.95 1019.23 1018.58 1018.08 1017.44 1016.61 1015.57 1014.64 1013.79 1013.38 1012.63 1011.54 1010.76 1009.89 1008.73 1007.74 1006.56 1005.72 1004.67 1003.61 1002.48 1001.63 1001.06 1000.89 1000.72 1000.61 1000.59 1000.45 1000.48 1000.70 1000.94 1000.99
1023.30 1022.90 1022.43 1021.95 1021.32 1020.56 1019.89 1019.23 1018.42 1017.77 1017.24 1016.61 1015.88 1015.25 1014.63 1013.79 1012.83 1012.08 1010.87 1009.97 1008.94 1007.54 1006.22 1005.00 1003.93 1002.94 1002.13 1000.93 1000.49 1000.19 1000.26 1000.12 999.93 999.99 1000.27 1000.54 1000.61 1000.65
1023.78 1023.25 1022.71 1022.15 1021.65 1021.15 1020.64 1020.13 1019.40 1018.69 1017.98 1017.05 1016.20 1015.36 1014.64 1013.86 1012.74 1011.95 1010.84 1009.79 1008.74 1007.38 1005.88 1004.45 1003.17 1002.37 1001.60 1000.68 999.98 999.68 999.71 999.76 999.83 999.90 1000.11 1000.34 1000.30 1000.15
1024.92 1024.38 1023.70 1023.17 1022.54 1021.87 1021.12 1020.37 1019.52 1018.70 1017.70 1016.74 1015.88 1015.07 1014.27 1013.59 1012.61 1011.53 1010.50 1009.33 1007.95 1006.73 1005.30 1003.72 1002.21 1001.10 1000.47 1000.06 999.57 999.34 999.35 999.53 999.60 999.66 999.89 999.92 999.82 999.41
1025.70 1024.89 1024.03 1023.28 1022.66 1021.92 1021.18 1020.31 1019.36 1018.39 1017.42 1016.40 1015.46 1014.71 1014.01 1013.00 1012.08 1010.99 1009.82 1008.66 1007.46 1005.99 1004.51 1002.83 1001.20 1000.30 999.93 999.61 999.31 999.01 998.98 999.14 999.29 999.44 999.42 999.21 999.14 999.03
Thickness
5660 5651 5645 5640 5643 5632 5608 5624 5625 5621 5618 5623 5623 5621 5624 5620 5626 5630 5624 5621 5619 5619 5615 5614 5612 5616 5615 5614 5617 5615 5611 5612 5614 5617 5621 5627 5630 5643
5630 5632 5630 5631 5614 5607 5612 5603 5600 5599 5605 5612 5609 5608 5611 5615 5618 5619 5614 5611 5608 5604 5601 5601 5602 5605 5608 5606 5607 5612 5606 5605 5608 5611 5615 5620 5619 5628
5602 5611 5609 5607 5595 5599 5594 5586 5579 5579 5584 5588 5586 5592 5600 5604 5602 5600 5593 5594 5593 5589 5588 5592 5590 5595 5598 5597 5599 5604 5604 5597 5602 5605 5610 5610 5611 5613
5567 5579 5578 5574 5581 5576 5572 5567 5566 5562 5559 5564 5575 5583 5581 5582 5580 5575 5573 5575 5577 5578 5575 5579 5580 5584 5587 5589 5588 5593 5591 5592 5596 5598 5602 5610 5605 5604
5546 5545 5541 5546 5547 5543 5545 5542 5540 5540 5542 5545 5559 5564 5559 5557 5558 5552 5553 5553 5557 5559 5560 5564 5569 5573 5576 5578 5583 5586 5579 5580 5583 5591 5590 5597 5602 5601
5519 5513 5506 5514 5516 5514 5511 5510 5511 5520 5534 5537 5537 5537 5532 5529 5530 5527 5529 5530 5534 5536 5542 5547 5555 5560 5564 5567 5571 5573 5569 5566 5572 5575 5583 5585 5591 5595
5491 5483 5483 5489 5485 5486 5485 5487 5498 5502 5507 5508 5506 5504 5504 5501 5503 5506 5509 5512 5513 5514 5524 5528 5534 5542 5544 5549 5562 5567 5557 5554 5557 5562 5571 5578 5582 5585
5464 5463 5462 5461 5457 5459 5464 5472 5479 5480 5480 5484 5484 5484 5485 5483 5483 5486 5488 5488 5496 5501 5500 5505 5512 5519 5524 5535 5543 5554 5544 5543 5545 5552 5555 5562 5569 5575
5447 5447 5449 5440 5440 5443 5450 5458 5461 5463 5464 5465 5461 5459 5460 5461 5462 5462 5465 5469 5477 5480 5481 5492 5493 5503 5508 5518 5528 5534 5529 5528 5532 5533 5543 5549 5557 5562
5436 5429 5424 5421 5422 5429 5436 5441 5443 5444 5443 5444 5443 5442 5445 5445 5444 5446 5453 5458 5463 5463 5464 5474 5478 5487 5492 5500 5511 5514 5513 5514 5516 5523 5525 5530 5538 5548
5417 5409 5410 5413 5416 5420 5424 5426 5425 5424 5425 5427 5426 5428 5430 5431 5433 5435 5436 5440 5446 5448 5448 5456 5459 5468 5474 5488 5492 5494 5493 5494 5500 5502 5509 5517 5521 5528
5403 5400 5398 5398 5403 5407 5409 5408 5408 5406 5409 5411 5411 5409 5411 5412 5411 5414 5416 5421 5426 5431 5432 5435 5438 5445 5458 5463 5464 5468 5472 5476 5480 5484 5490 5496 5505 5510
5384 5384 5382 5385 5386 5389 5389 5388 5388 5389 5389 5390 5389 5389 5391 5389 5388 5387 5387 5393 5398 5404 5404 5404 5413 5411 5414 5425 5430 5435 5438 5445 5451 5459 5467 5475 5480 5488
5364 5365 5366 5369 5370 5370 5370 5371 5370 5369 5367 5368 5368 5369 5366 5366 5367 5366 5365 5367 5370 5375 5379 5374 5380 5378 5383 5394 5396 5399 5404 5412 5419 5430 5440 5448 5456 5464
5348 5350 5353 5354 5352 5350 5351 5351 5350 5348 5345 5342 5340 5336 5334 5333 5335 5336 5336 5337 5341 5340 5342 5342 5339 5341 5342 5351 5357 5361 5363 5374 5382 5396 5408 5416 5427 5435
5332 5334 5332 5330 5328 5328 5327 5324 5322 5316 5310 5307 5303 5303 5301 5298 5296 5296 5296 5295 5297 5303 5300 5299 5300 5300 5304 5308 5311 5327 5329 5339 5350 5360 5375 5387 5401 5409
5314 5312 5309 5305 5305 5297 5293 5289 5285 5280 5275 5270 5269 5269 5266 5262 5259 5256 5256 5260 5261 5265 5269 5268 5268 5272 5276 5278 5284 5289 5299 5305 5316 5326 5340 5356 5370 5381
5293 5288 5283 5280 5274 5270 5264 5259 5256 5251 5246 5244 5240 5238 5237 5236 5238 5237 5235 5236 5240 5243 5248 5250 5250 5260 5265 5268 5265 5271 5277 5285 5292 5300 5314 5330 5343 5357
5267 5261 5257 5251 5244 5238 5235 5231 5226 5221 5219 5217 5219 5219 5221 5216 5216 5220 5221 5223 5227 5230 5234 5236 5241 5247 5256 5264 5263 5265 5270 5275 5280 5288 5296 5307 5320 5334
5241 5235 5228 5222 5217 5213 5208 5204 5202 5200 5199 5199 5201 5201 5202 5205 5208 5209 5215 5217 5220 5227 5233 5239 5244 5250 5255 5263 5266 5267 5266 5270 5277 5282 5285 5292 5303 5316
5217 5211 5203 5197 5191 5186 5183 5182 5183 5185 5187 5191 5194 5198 5200 5203 5207 5210 5214 5218 5222 5229 5236 5244 5250 5254 5257 5263 5270 5271 5270 5271 5273 5277 5280 5285 5296 5309
5190 5182 5177 5173 5171 5170 5171 5175 5180 5184 5189 5194 5197 5200 5204 5205 5209 5213 5217 5222 5229 5235 5242 5251 5260 5266 5270 5272 5276 5278 5275 5274 5275 5277 5279 5286 5295 5312
5168 5166 5165 5165 5165 5168 5173 5178 5183 5188 5193 5198 5202 5204 5206 5210 5214 5218 5223 5228 5234 5241 5250 5261 5273 5276 5277 5278 5279 5282 5281 5280 5280 5280 5284 5290 5296 5305